This demonstration page uses our WeatherBlox Daily Observations layout. Learn more.

Left ArrowRight Arrow

38.80484, -77.04692

Hourly Observations for November 18, 2020

Temp ( °F °C ) Dew Point ( °F °C ) Humidity (%) Winds ( mph kmh ) Pressure ( in mb ) Visibility ( mi km ) Precip ( " mm )
12:52 am 00:52 Mostly Clear 38 3.3 21 -6.1 51 51 NW 14 22 30.38 1029 10 16.0934 0 0
1:52 am 01:52 Mostly Clear 37 2.8 21 -6.1 52 52 NW 14 22 30.4 1029 10 16.0934 0 0
2:52 am 02:52 Mostly Clear 37 2.8 21 -6.1 52 52 WNW 10 17 30.42 1030 10 16.0934 0 0
3:52 am 03:52 Mostly Clear 37 2.8 20 -6.7 50 50 WNW 8 13 30.43 1031 10 16.0934 0 0
4:52 am 04:52 Mostly Clear 37 2.8 19 -7.2 48 48 NW 12 19 30.45 1031 10 16.0934 0 0
5:52 am 05:52 Partly Cloudy 37 2.8 19 -7.2 48 48 NW 12 19 30.47 1032 10 16.0934 0 0
6:52 am 06:52 Mostly Clear 37 2.8 19 -7.2 48 48 NW 8 13 30.5 1033 10 16.0934 0 0
7:52 am 07:52 Mostly Cloudy 38 3.3 20 -6.7 48 48 WNW 7 11 30.52 1034 10 16.0934 0 0
8:52 am 08:52 Partly Cloudy 41 5 21 -6.1 45 45 NW 15 24 30.55 1035 10 16.0934 0 0
9:52 am 09:52 Mostly Cloudy 42 5.6 21 -6.1 43 43 NNW 16 26 30.57 1035 10 16.0934 0 0
10:52 am 10:52 Mostly Cloudy 44 6.7 23 -5 43 43 NNW 17 28 30.57 1035 10 16.0934 0 0
11:52 am 11:52 Mostly Cloudy 43 6.1 22 -5.6 43 43 NNW 21 33 30.57 1035 10 16.0934 0 0
12:52 pm 12:52 Partly Cloudy 45 7.2 24 -4.4 44 44 NNW 15 24 30.55 1034 10 16.0934 0 0
1:52 pm 13:52 Mostly Sunny 44 6.7 22 -5.6 41 41 NW 17 28 30.54 1034 10 16.0934 0 0
2:52 pm 14:52 Mostly Sunny 44 6.7 23 -5 43 43 NNW 15 24 30.53 1034 10 16.0934 0 0
3:52 pm 15:52 Sunny 43 6.1 22 -5.6 43 43 NNW 14 22 30.55 1034 10 16.0934 0 0
4:52 pm 16:52 Partly Cloudy 41 5 22 -5.6 47 47 NNW 10 17 30.55 1035 10 16.0934 0 0
5:52 pm 17:52 Mostly Clear 39 3.9 23 -5 53 53 N 9 15 30.58 1035 10 16.0934 0 0
6:52 pm 18:52 Mostly Clear 39 3.9 23 -5 53 53 NNE 9 15 30.59 1036 10 16.0934 0 0
7:52 pm 19:52 Mostly Clear 39 3.9 22 -5.6 50 50 NNE 8 13 30.61 1037 10 16.0934 0 0
8:52 pm 20:52 Mostly Clear 38 3.3 23 -5 55 55 N 5 7 30.61 1037 10 16.0934 0 0
9:52 pm 21:52 Mostly Clear 38 3.3 24 -4.4 57 57 Calm 30.62 1037 10 16.0934 0 0
10:52 pm 22:52 Mostly Clear 37 2.8 27 -2.8 67 67 SSE 3 6 30.62 1037 10 16.0934 0 0
11:52 pm 23:52 Mostly Clear 35 1.7 25 -3.9 67 67 WSW 3 6 30.62 1037 10 16.0934 0 0

Powered by AerisWeather